Temperature
20 20 20 20 20 20 22 24 25 25 25 25 25 25 25 24 22 19 19 18 18 17 17 16 16 15 14 14 14 13 13 13 12 12 12 12 11 11 11 11 11 11 11 11 12 12 12 12 13
20 19 20 21 20 21 22 24 25 25 25 24 24 24 25 23 21 19 18 18 17 17 17 16 16 15 15 14 14 14 13 13 12 12 11 11 11 11 11 11 11 11 11 11 12 12 12 12 13
20 20 21 21 22 22 24 25 25 25 24 24 24 24 24 23 21 19 19 18 17 17 17 16 16 15 15 14 14 13 13 13 12 12 11 11 11 11 11 11 11 11 11 11 12 12 12 12 13
19 20 22 22 22 24 24 25 25 24 24 24 24 24 23 22 21 20 19 18 17 16 16 16 15 15 14 14 14 13 13 13 12 11 11 11 11 11 11 11 11 11 11 12 12 12 12 12 13
20 21 21 21 22 24 25 26 25 24 24 24 24 24 22 21 21 20 19 18 17 16 16 16 15 15 14 14 14 13 13 13 12 12 11 11 11 11 11 11 11 11 11 11 12 12 12 12 12
21 22 21 21 23 24 25 25 25 25 25 24 24 24 21 21 20 19 18 18 17 16 16 16 15 15 14 14 14 13 13 12 12 12 11 11 11 11 11 11 11 11 11 11 11 12 12 12 12
21 20 21 22 23 24 25 25 25 24 24 25 24 24 21 20 20 19 18 18 17 16 16 16 15 15 14 14 14 13 13 12 12 12 11 11 11 11 11 11 11 11 11 11 11 12 12 12 12
20 20 21 22 23 24 25 25 25 24 24 24 24 24 22 20 20 19 18 18 17 16 16 16 15 15 14 14 14 13 13 12 12 12 12 11 11 11 11 11 11 11 11 11 11 11 11 11 11
20 19 20 22 23 24 24 24 24 24 24 24 23 23 22 21 20 18 18 17 17 16 15 15 15 15 14 14 14 13 13 12 12 12 11 11 11 11 11 11 11 11 11 11 11 11 11 11 11
20 18 20 22 23 23 24 24 24 23 23 23 23 22 21 20 19 19 18 17 17 16 16 15 15 14 14 13 13 13 13 12 12 12 11 11 11 10 10 11 11 11 11 11 11 11 11 11 10
21 20 21 22 23 23 23 23 23 23 22 23 23 22 21 20 19 19 18 18 17 17 16 15 15 14 14 13 13 13 13 12 12 11 11 11 10 10 10 10 11 11 11 10 10 10 10 10 10
20 21 22 22 22 22 22 23 23 23 23 23 23 23 21 20 19 19 19 18 17 17 16 16 15 15 14 13 13 13 12 12 12 11 11 11 11 10 10 10 10 10 10 10 10 10 10 10 10
20 21 21 22 21 21 21 21 22 22 23 23 23 22 21 20 20 19 19 18 18 17 16 16 15 15 14 14 13 13 12 12 12 12 11 11 11 11 10 10 10 10 10 10 10 10 10 10 10
20 21 21 21 21 21 21 21 21 22 22 22 22 22 21 20 20 20 19 19 18 17 17 16 15 15 14 14 13 13 13 12 12 12 11 11 11 11 10 10 10 10 10 10 10 10 10 10 10
20 19 19 20 21 21 20 19 20 21 22 22 22 22 21 21 20 20 20 19 19 18 17 16 16 15 15 14 14 13 13 13 12 12 12 11 11 11 11 10 10 10 10 10 10 10 10 10 10
19 18 18 20 20 20 19 18 21 22 22 22 22 22 22 21 21 20 20 20 19 19 18 17 16 15 15 14 14 13 13 13 12 12 12 12 11 11 11 11 10 10 10 10 10 10 10 10 10
18 17 18 19 20 20 19 18 20 22 22 22 22 22 22 22 21 21 20 20 19 19 18 17 16 16 15 15 14 14 13 13 13 12 12 12 11 11 11 11 10 10 10 10 10 10 10 10 10
17 18 19 19 20 20 19 18 20 22 22 22 22 22 22 22 22 21 21 20 19 19 18 17 17 16 15 14 14 13 13 13 13 12 12 12 12 11 11 11 11 10 10 10 10 10 10 9 9
18 18 18 20 20 19 18 18 19 21 21 21 22 22 22 22 22 21 21 20 19 19 18 17 17 16 15 15 14 13 13 13 13 12 12 12 12 12 11 11 11 10 10 10 10 10 9 9 9
17 17 17 19 20 19 18 18 19 20 20 21 22 22 22 22 22 21 21 20 19 19 18 18 17 16 16 15 15 14 14 13 13 13 12 12 12 12 11 11 11 11 10 10 10 10 9 9 9
17 16 17 18 18 18 18 17 19 20 21 22 22 22 22 22 22 21 20 20 19 19 18 18 17 16 16 15 14 14 13 13 12 12 12 12 12 12 12 11 11 11 10 10 10 10 9 9 9
16 17 17 17 16 16 18 16 18 20 20 20 21 21 22 21 21 21 20 20 19 19 18 18 17 16 16 15 15 14 14 14 14 14 13 13 12 12 12 12 11 11 10 10 10 10 9 9 9
17 17 17 16 16 15 16 16 17 20 19 20 20 22 22 21 21 20 20 20 19 19 18 18 17 17 16 15 15 15 14 14 14 13 13 12 12 12 12 12 11 11 11 10 10 10 9 9 9
17 17 16 16 15 14 16 16 16 19 20 20 20 22 22 21 20 20 20 19 19 19 18 18 17 17 16 16 15 15 15 14 14 13 13 12 12 12 12 12 11 11 11 10 10 10 9 9 9
15 14 13 13 13 14 17 16 17 20 21 21 20 21 21 21 20 19 19 19 19 19 18 18 17 17 16 16 15 15 15 14 14 14 13 13 12 12 12 12 11 11 11 10 10 10 9 9 9
14 14 13 13 14 15 16 16 18 20 20 21 21 21 21 20 20 19 19 19 19 19 19 18 17 17 16 16 16 15 15 14 14 14 14 13 13 13 12 12 11 11 11 10 10 10 9 9 9
14 14 15 14 14 14 16 17 19 19 19 19 19 20 20 20 20 19 19 19 19 19 19 18 18 17 16 16 16 15 15 14 14 14 13 13 13 12 12 12 11 11 11 10 10 10 9 9 9
14 14 13 12 12 13 15 16 17 18 18 18 18 18 19 19 19 19 19 19 19 19 18 18 18 17 17 16 16 15 15 15 14 14 13 13 13 12 12 11 11 11 10 10 10 9 9 9 8
13 13 13 13 13 13 14 16 19 19 19 18 18 19 19 19 19 19 19 19 19 18 18 18 17 17 16 16 15 15 15 14 14 14 13 13 13 12 12 12 11 11 10 10 9 9 9 8 8
13 13 13 12 12 13 13 15 19 18 18 18 18 19 19 19 18 18 18 18 18 18 18 17 17 17 16 16 15 15 15 14 14 14 13 13 13 12 12 11 11 10 10 9 9 9 8 8 8
Wind_Speed
10 11 8 3 4 5 6 2 1 3 2 5 6 3 4 6 5 6 6 11 15 16 20 19 18 17 16 15 14 14 13 13 13 12 12 12 12 12 12 13 13 13 13 13 14 14 14 14 14
10 9 5 4 5 6 5 5 3 4 5 6 4 1 0 5 9 9 7 12 15 17 20 18 19 18 16 15 15 14 13 12 12 12 11 11 11 11 11 12 12 12 12 12 13 13 13 13 13
9 10 5 4 5 5 2 4 6 7 7 4 4 1 2 5 10 9 10 13 14 15 19 20 20 18 17 16 15 14 13 12 12 11 11 10 11 11 11 11 11 11 11 11 12 12 12 12 12
6 5 5 6 8 4 2 3 7 7 5 3 3 4 5 6 6 10 13 12 14 14 19 21 20 18 17 16 15 15 13 12 12 11 10 10 10 10 10 10 10 10 10 10 10 10 11 10 10
5 5 7 8 8 5 1 3 6 5 7 5 4 2 8 6 12 14 12 12 13 13 19 21 20 19 17 16 15 15 13 12 12 11 10 10 10 9 9 9 9 9 9 9 9 9 9 9 9
5 5 7 9 9 6 4 4 4 5 6 7 5 3 7 9 11 12 11 10 12 13 18 19 20 19 18 17 16 15 14 13 12 11 10 10 9 9 8 8 8 8 7 8 8 8 8 8 8
6 6 9 10 6 6 5 5 6 6 5 6 5 3 8 10 11 12 11 10 11 13 16 16 17 17 17 17 16 16 14 13 12 11 11 10 9 8 8 8 8 7 7 7 6 6 6 6 6
5 5 10 10 8 5 4 4 4 4 4 3 3 3 7 12 12 11 10 9 11 11 13 15 16 17 16 16 16 16 15 14 13 12 11 11 10 9 9 9 8 7 6 5 5 5 4 3 3
5 7 10 9 6 4 4 4 4 1 3 1 2 4 8 14 13 11 9 7 10 11 11 13 14 16 17 17 17 17 15 14 14 13 13 12 11 11 10 10 8 6 5 4 3 2 1 0 1
6 8 11 7 5 4 2 4 4 5 6 6 5 7 10 12 12 12 11 11 11 12 11 11 12 13 15 15 17 15 14 15 14 14 15 13 11 11 11 12 10 7 6 5 4 3 3 4 4
8 10 9 8 6 6 5 5 5 6 7 8 8 11 13 11 11 12 12 12 12 12 11 11 11 12 12 10 14 12 13 14 15 16 17 13 10 11 12 11 10 9 8 7 6 6 6 4 2
12 11 10 8 5 5 7 7 8 9 9 6 3 7 14 13 13 13 13 12 12 12 12 11 11 10 11 11 10 10 10 11 11 13 15 12 7 7 9 8 10 10 9 7 5 5 4 2 2
15 13 11 8 7 8 8 10 10 11 10 8 5 5 12 13 13 13 12 12 13 14 13 12 12 12 10 8 7 9 8 10 11 13 14 12 7 5 6 7 8 7 7 6 4 3 2 2 1
9 10 12 11 10 9 10 12 12 12 10 10 9 9 11 12 13 12 13 12 13 15 15 13 13 12 10 9 7 7 8 10 12 12 12 13 10 7 6 4 5 5 6 6 4 3 2 1 1
10 12 12 12 11 9 8 13 16 15 12 11 11 11 12 12 12 12 12 13 13 14 15 15 14 13 13 11 9 7 8 10 8 11 14 13 11 9 6 4 4 5 7 6 4 2 1 1 1
9 11 12 11 12 9 7 13 10 10 12 13 11 11 11 12 12 11 12 11 11 12 14 15 14 14 14 11 9 6 8 9 8 11 13 14 13 12 8 4 4 7 7 5 3 2 2 2 2
10 11 13 11 11 9 11 11 9 7 10 12 12 12 11 11 13 12 12 12 12 12 14 15 14 14 14 12 9 7 7 8 9 11 11 13 14 14 10 6 6 8 5 4 4 3 3 3 2
8 12 12 11 8 10 12 13 12 11 11 12 12 12 12 12 12 12 12 12 12 12 13 14 15 14 13 11 8 7 7 7 7 9 11 14 13 14 11 7 7 7 4 4 4 4 3 3 3
11 11 11 10 5 8 13 15 14 13 12 12 12 11 11 11 10 10 12 12 12 12 12 14 14 14 12 10 10 9 8 7 7 6 11 13 14 14 11 6 6 6 6 6 6 5 5 4 3
15 15 14 10 5 6 11 15 15 14 14 12 12 12 11 10 9 9 10 11 12 13 13 14 15 14 13 11 10 8 8 7 7 6 8 12 13 14 12 9 7 7 6 7 7 5 4 4 4
15 14 13 11 8 8 9 12 14 12 13 12 11 10 9 9 10 11 11 11 10 12 13 13 14 14 13 11 8 7 6 5 6 8 8 9 12 13 12 10 8 8 8 7 8 7 7 5 4
14 10 11 11 8 7 6 8 9 8 10 11 12 12 11 10 9 9 11 11 11 11 11 12 13 13 13 13 11 11 10 9 9 8 8 8 11 11 12 11 10 9 7 8 8 8 6 6 5
9 6 9 10 10 10 10 9 8 9 11 12 12 12 11 11 10 10 10 11 10 10 10 10 11 13 13 13 13 13 11 9 7 7 9 10 9 10 11 11 9 9 8 8 8 7 7 6 6
6 5 6 6 6 10 13 11 8 8 10 10 11 11 10 11 10 9 9 9 9 9 9 10 11 12 13 14 14 14 13 11 10 10 10 9 7 8 10 10 9 9 8 8 8 8 8 8 7
7 5 4 6 8 9 9 10 9 7 6 6 8 9 10 10 10 10 10 10 10 11 11 11 11 12 13 14 14 14 14 13 12 11 11 10 8 8 11 10 10 9 8 8 8 8 8 8 8
11 10 8 6 6 5 7 10 8 6 5 4 4 6 8 10 10 10 11 11 11 12 12 12 12 12 13 14 14 13 13 10 9 10 9 10 9 9 9 10 10 9 9 9 8 7 7 7 7
9 11 9 6 7 6 7 7 7 5 5 6 7 7 8 9 10 10 10 10 11 12 13 13 13 12 13 14 13 12 12 12 10 9 9 8 7 7 9 10 10 9 9 9 9 7 7 7 7
9 6 5 7 6 7 8 10 7 8 9 9 8 8 8 7 8 9 9 10 10 10 11 12 13 13 12 12 12 11 11 11 10 8 9 9 8 8 9 9 10 9 9 9 9 7 7 8 7
10 10 7 6 6 5 5 5 4 5 6 7 7 7 7 7 7 8 8 8 9 9 10 10 11 11 11 12 11 11 10 10 9 9 9 8 8 8 8 9 9 9 9 8 8 8 8 8 8
11 13 12 9 8 7 7 8 2 2 3 2 2 3 5 6 6 6 6 6 7 8 9 10 11 11 11 11 10 10 10 9 9 9 8 8 8 8 8 8 8 8 8 8 8 8 8 8 8
Wind_Direction
271 250 232 240 241 236 242 226 170 113 91 66 50 4 360 36 41 105 158 129 124 132 138 146 146 144 140 135 130 124 118 114 109 105 101 98 95 91 86 81 78 76 74 72 71 70 68 66 65
274 251 237 238 242 240 223 197 173 103 95 85 86 283 301 83 92 115 141 124 130 134 142 147 147 146 143 140 135 131 126 122 117 112 107 103 99 95 90 85 82 79 77 75 73 71 69 67 65
267 256 241 234 244 249 236 131 121 107 108 134 156 215 30 86 112 133 135 132 133 135 141 144 149 148 146 144 140 137 132 128 123 119 114 109 105 98 93 90 86 84 81 78 75 72 69 68 66
255 234 239 246 251 250 271 115 113 122 132 186 196 150 102 60 93 121 129 140 137 136 136 145 152 151 150 148 145 141 137 133 130 125 121 116 109 104 98 94 91 88 85 82 78 75 72 68 64
236 245 236 245 250 252 254 99 127 162 163 180 230 164 112 95 100 119 140 148 143 139 136 148 155 155 153 152 150 147 143 140 137 133 128 122 116 111 104 101 97 93 89 84 80 77 71 67 62
240 243 242 237 232 225 204 163 183 208 179 164 199 216 119 131 124 137 150 153 146 137 137 150 157 158 157 156 155 153 150 147 144 141 135 129 125 121 116 112 106 100 93 86 82 77 71 65 60
251 256 259 262 241 215 195 165 206 219 211 173 175 203 129 148 140 146 152 159 143 136 138 149 158 160 160 160 159 158 157 154 152 148 144 139 136 135 130 123 116 109 101 92 85 79 73 64 56
265 271 258 256 256 239 174 166 209 242 245 137 167 238 144 150 142 149 154 158 142 140 145 154 160 162 164 164 164 162 162 161 158 153 149 149 151 149 144 134 127 121 113 103 93 85 77 69 62
261 254 254 251 252 256 155 188 196 226 289 203 167 58 111 134 143 149 153 156 149 154 157 159 163 165 167 167 166 162 164 164 159 157 158 162 170 165 156 140 140 139 135 130 122 123 134 189 225
221 243 251 270 295 300 212 208 203 188 228 224 181 119 124 139 154 163 170 173 169 169 170 165 163 164 167 167 161 168 171 169 173 172 174 188 189 164 152 149 156 162 167 168 177 203 232 237 217
227 240 257 267 290 309 294 254 238 224 231 227 204 166 156 163 173 182 185 183 178 175 176 169 166 163 164 159 163 174 175 175 189 184 182 192 170 145 147 158 169 181 189 195 202 221 233 224 182
246 248 250 259 266 268 272 271 259 239 240 251 239 165 163 175 186 193 194 189 178 176 179 174 168 164 166 163 170 172 173 177 186 184 184 183 165 162 163 170 176 185 191 186 198 218 221 212 217
242 249 252 249 243 254 264 265 264 256 249 252 235 181 177 186 193 198 200 193 179 179 179 178 172 168 168 167 171 175 176 177 177 178 186 177 163 172 167 177 172 185 175 173 202 222 207 204 215
259 257 253 247 238 238 247 256 253 250 244 240 225 209 200 200 199 198 199 199 187 180 178 177 177 172 170 173 175 177 178 175 175 172 182 180 174 175 165 176 167 177 174 184 196 210 188 199 189
264 269 262 243 234 234 244 255 242 241 238 237 227 216 210 210 205 205 200 198 191 181 176 177 180 176 174 178 181 181 179 173 171 171 183 183 180 176 166 172 170 181 185 190 198 209 193 208 221
240 248 251 235 223 213 215 255 254 225 217 229 232 226 213 210 208 205 203 195 190 178 175 177 179 179 178 180 183 182 180 176 173 173 182 186 185 179 174 172 180 187 182 183 185 196 208 224 227
228 235 239 240 212 204 215 253 259 232 212 222 228 230 223 210 205 204 199 191 187 180 175 174 174 180 181 180 180 183 181 179 176 176 180 186 187 183 178 178 185 187 183 188 191 197 199 217 228
227 237 245 242 207 211 230 248 255 250 234 228 228 225 222 217 208 199 193 188 183 182 176 173 174 180 180 178 178 183 184 182 180 179 182 183 187 185 182 180 186 186 182 195 196 202 206 209 216
261 266 265 262 223 226 242 253 256 250 242 237 234 228 223 219 206 192 189 183 179 179 178 176 175 180 180 179 182 186 190 186 184 183 183 184 187 187 184 183 186 186 191 197 197 194 205 216 202
251 262 268 275 246 244 258 263 261 249 239 236 233 230 223 215 196 185 183 180 180 179 181 179 179 180 183 183 183 184 182 184 186 183 188 190 190 190 190 186 188 189 192 198 201 195 196 208 184
242 245 255 269 283 260 262 270 253 240 231 229 228 226 222 208 196 185 182 181 180 183 183 183 181 180 182 176 172 170 171 176 186 191 195 194 194 194 192 192 188 192 192 198 201 196 194 205 209
244 241 251 266 276 271 251 277 267 243 221 220 221 218 214 207 197 183 179 182 185 185 180 179 178 178 179 175 178 179 185 193 198 191 193 194 196 197 195 194 194 196 196 198 201 199 196 194 210
242 245 250 252 256 265 259 262 262 235 227 219 216 212 204 194 189 183 178 181 182 177 175 177 175 178 178 180 184 188 195 197 192 188 189 194 198 196 195 195 194 199 200 200 200 200 200 201 206
244 247 253 250 254 253 235 235 262 231 225 216 208 200 188 182 180 177 171 168 173 171 170 174 176 180 179 183 188 193 196 194 191 194 194 195 197 197 195 193 194 198 199 200 202 202 203 206 209
213 205 224 218 219 239 209 222 245 226 214 213 204 195 184 178 176 176 174 176 177 176 177 181 182 184 184 187 193 197 199 198 199 197 196 194 195 198 199 194 195 197 198 198 197 200 206 206 207
204 205 211 220 227 240 206 226 241 210 187 206 210 190 184 182 184 184 184 182 181 181 180 183 187 189 188 191 197 199 199 199 202 200 195 195 197 197 191 189 192 195 195 197 196 202 207 206 209
203 216 231 270 291 278 244 242 235 196 202 211 218 206 199 194 189 185 183 182 182 183 185 186 188 191 191 193 195 199 199 198 200 197 193 193 192 187 185 187 190 194 196 197 194 203 207 205 210
217 208 199 215 232 245 251 242 235 204 214 213 213 212 207 199 192 186 185 185 184 184 186 186 189 192 191 191 193 197 199 197 194 192 192 189 187 183 183 189 191 194 198 196 194 199 204 205 211
201 211 208 209 231 237 254 247 231 203 198 197 203 205 202 199 196 193 191 187 181 180 181 185 189 190 191 191 191 192 194 192 190 192 192 186 184 183 186 189 190 193 196 196 197 201 199 206 213
210 211 206 211 224 231 253 261 314 32 68 129 183 205 204 199 196 192 188 182 180 182 188 190 190 190 190 187 186 188 187 186 189 192 189 182 182 183 186 188 188 192 195 196 199 205 204 208 214
Height
1505 1506 1507 1510 1511 1510 1504 1494 1488 1490 1491 1494 1496 1497 1497 1500 1505 1516 1514 1513 1513 1514 1516 1519 1521 1522 1524 1526 1527 1528 1529 1530 1531 1532 1533 1533 1534 1534 1534 1535 1535 1535 1535 1536 1536 1536 1536 1536 1536
1505 1507 1510 1509 1509 1512 1502 1490 1490 1490 1493 1496 1498 1499 1499 1502 1505 1509 1512 1513 1513 1514 1516 1518 1520 1522 1524 1526 1527 1528 1530 1531 1531 1532 1533 1534 1534 1535 1535 1535 1536 1536 1536 1536 1536 1537 1537 1537 1537
1505 1507 1509 1504 1503 1503 1495 1486 1488 1491 1494 1497 1498 1499 1500 1503 1506 1508 1511 1512 1513 1514 1516 1518 1520 1522 1524 1526 1527 1528 1530 1531 1532 1533 1533 1534 1535 1535 1536 1536 1536 1537 1537 1537 1537 1537 1537 1537 1538
1506 1507 1505 1502 1499 1491 1488 1486 1487 1491 1495 1497 1498 1499 1501 1504 1506 1507 1509 1512 1513 1514 1516 1518 1520 1522 1524 1526 1527 1529 1530 1531 1532 1533 1534 1535 1535 1536 1536 1537 1537 1537 1538 1538 1538 1538 1538 1538 1538
1506 1505 1503 1501 1495 1487 1484 1485 1488 1491 1493 1496 1497 1497 1500 1504 1505 1507 1509 1512 1513 1514 1515 1518 1520 1522 1524 1526 1527 1529 1530 1531 1532 1533 1534 1535 1535 1536 1537 1537 1538 1538 1538 1539 1539 1539 1539 1539 1539
1505 1500 1503 1501 1492 1486 1484 1486 1488 1490 1491 1494 1496 1496 1500 1502 1504 1506 1509 1511 1513 1514 1514 1517 1520 1522 1523 1525 1527 1528 1530 1531 1532 1533 1534 1535 1536 1536 1537 1538 1538 1539 1539 1539 1539 1539 1539 1539 1539
1503 1500 1498 1493 1489 1485 1483 1485 1488 1489 1490 1491 1494 1495 1498 1501 1503 1505 1508 1511 1513 1514 1514 1516 1519 1521 1523 1525 1526 1528 1529 1530 1532 1533 1534 1535 1536 1537 1537 1538 1538 1539 1539 1540 1540 1540 1540 1540 1540
1499 1498 1494 1490 1488 1485 1481 1484 1487 1488 1489 1491 1493 1494 1495 1498 1501 1504 1507 1510 1512 1513 1514 1515 1517 1519 1522 1524 1526 1527 1529 1530 1531 1533 1534 1535 1536 1537 1537 1538 1538 1539 1539 1540 1540 1540 1540 1540 1540
1498 1500 1496 1488 1486 1483 1481 1484 1486 1488 1489 1490 1492 1493 1494 1496 1499 1503 1506 1509 1510 1512 1513 1514 1516 1518 1520 1522 1524 1526 1528 1529 1531 1532 1533 1534 1535 1536 1537 1538 1539 1539 1539 1540 1540 1540 1540 1540 1540
1495 1497 1490 1484 1482 1481 1481 1483 1485 1487 1488 1489 1490 1492 1494 1495 1497 1500 1502 1504 1507 1509 1511 1513 1515 1516 1519 1521 1523 1524 1526 1528 1529 1531 1533 1534 1535 1536 1537 1538 1539 1539 1539 1540 1540 1540 1540 1540 1540
1489 1489 1485 1483 1482 1482 1482 1482 1483 1485 1486 1486 1487 1489 1490 1492 1495 1497 1499 1501 1503 1506 1509 1511 1513 1515 1517 1519 1521 1523 1524 1526 1528 1530 1532 1533 1535 1536 1537 1537 1538 1539 1539 1539 1540 1540 1540 1540 1540
1486 1483 1483 1482 1482 1483 1483 1482 1482 1482 1483 1484 1484 1485 1486 1488 1491 1493 1496 1498 1501 1503 1506 1508 1511 1513 1515 1517 1519 1521 1523 1525 1527 1529 1531 1532 1534 1535 1536 1536 1537 1538 1538 1539 1539 1539 1540 1540 1540
1483 1481 1481 1481 1481 1482 1482 1481 1481 1479 1480 1481 1481 1482 1483 1485 1487 1490 1492 1495 1497 1499 1502 1505 1507 1509 1512 1514 1517 1519 1521 1523 1525 1527 1529 1531 1532 1534 1535 1535 1536 1537 1538 1538 1538 1539 1539 1539 1539
1479 1479 1478 1478 1478 1479 1479 1478 1478 1474 1477 1477 1478 1479 1480 1482 1484 1486 1489 1491 1493 1495 1498 1501 1504 1506 1508 1511 1513 1516 1519 1521 1523 1524 1526 1528 1530 1531 1533 1534 1535 1536 1536 1537 1537 1537 1538 1538 1538
1479 1478 1476 1474 1474 1475 1478 1476 1471 1470 1472 1473 1473 1474 1476 1477 1479 1481 1483 1486 1489 1491 1493 1496 1499 1502 1505 1507 1510 1513 1516 1518 1520 1521 1524 1526 1527 1529 1530 1532 1533 1534 1534 1535 1536 1536 1536 1536 1536
1477 1479 1479 1470 1469 1471 1478 1476 1465 1465 1466 1467 1468 1470 1471 1472 1474 1476 1478 1481 1484 1487 1489 1492 1495 1498 1500 1503 1506 1509 1512 1515 1516 1518 1520 1522 1524 1526 1527 1529 1530 1531 1532 1533 1533 1534 1534 1534 1534
1477 1478 1474 1468 1463 1466 1471 1470 1462 1461 1461 1462 1463 1464 1465 1466 1468 1470 1473 1475 1479 1482 1484 1487 1490 1493 1496 1499 1503 1506 1509 1511 1513 1515 1517 1519 1521 1523 1524 1525 1527 1528 1529 1530 1531 1531 1531 1531 1531
1475 1472 1468 1465 1459 1462 1465 1463 1458 1457 1456 1456 1457 1458 1459 1460 1462 1464 1467 1469 1473 1476 1479 1482 1485 1488 1492 1496 1499 1502 1505 1507 1509 1511 1513 1515 1517 1519 1520 1522 1523 1525 1526 1527 1528 1528 1529 1529 1529
1466 1467 1466 1459 1456 1459 1460 1458 1453 1451 1451 1450 1450 1451 1453 1454 1456 1458 1461 1464 1467 1470 1474 1476 1479 1483 1487 1490 1492 1496 1498 1501 1504 1506 1509 1511 1513 1515 1516 1518 1519 1521 1522 1523 1524 1525 1525 1525 1526
1467 1468 1466 1459 1454 1457 1458 1453 1446 1444 1443 1443 1443 1445 1446 1448 1450 1452 1455 1458 1461 1464 1468 1471 1474 1477 1481 1484 1487 1490 1494 1497 1499 1502 1504 1506 1508 1510 1512 1513 1515 1516 1518 1519 1520 1521 1521 1522 1522
1464 1466 1464 1462 1457 1454 1457 1454 1442 1434 1434 1436 1437 1438 1440 1442 1445 1447 1449 1452 1455 1458 1462 1466 1468 1472 1476 1479 1483 1487 1490 1493 1495 1497 1499 1501 1503 1505 1507 1509 1510 1512 1513 1514 1515 1516 1517 1517 1518
1462 1458 1459 1461 1465 1464 1457 1463 1442 1432 1431 1430 1431 1432 1434 1437 1439 1442 1444 1447 1450 1453 1457 1461 1464 1467 1470 1474 1477 1480 1482 1484 1487 1490 1493 1496 1498 1500 1502 1503 1505 1507 1508 1509 1510 1511 1512 1513 1513
1455 1455 1457 1459 1463 1466 1458 1462 1443 1428 1429 1426 1425 1426 1428 1431 1434 1437 1439 1442 1445 1448 1452 1456 1459 1462 1465 1468 1471 1474 1477 1480 1483 1486 1488 1490 1492 1494 1496 1498 1500 1501 1502 1504 1505 1506 1507 1508 1508
1452 1455 1457 1458 1463 1469 1454 1458 1444 1428 1421 1419 1419 1420 1423 1426 1430 1432 1435 1438 1441 1444 1447 1451 1454 1457 1460 1463 1466 1469 1471 1474 1477 1480 1482 1484 1487 1489 1491 1492 1494 1495 1497 1498 1499 1501 1502 1502 1503
1453 1461 1470 1470 1471 1461 1441 1445 1434 1416 1411 1411 1413 1415 1418 1421 1425 1427 1430 1433 1436 1439 1442 1445 1449 1452 1455 1458 1461 1463 1466 1469 1471 1474 1476 1478 1480 1482 1484 1486 1488 1489 1491 1492 1494 1495 1496 1496 1497
1450 1454 1464 1467 1460 1446 1437 1437 1421 1408 1407 1408 1410 1412 1415 1417 1420 1423 1425 1428 1431 1434 1437 1440 1443 1447 1450 1453 1455 1458 1461 1464 1466 1468 1470 1472 1474 1476 1478 1480 1482 1483 1485 1487 1488 1489 1489 1490 1491
1447 1449 1447 1454 1451 1451 1436 1421 1409 1405 1406 1407 1408 1409 1411 1414 1416 1419 1422 1424 1427 1430 1432 1435 1438 1442 1445 1447 1450 1453 1456 1458 1460 1463 1465 1467 1469 1471 1473 1475 1476 1478 1479 1481 1482 1482 1483 1484 1484
1439 1442 1449 1457 1459 1454 1435 1424 1418 1408 1406 1405 1406 1406 1408 1411 1413 1415 1418 1420 1423 1425 1428 1431 1433 1436 1439 1442 1445 1447 1450 1452 1455 1457 1460 1461 1464 1466 1467 1469 1471 1472 1474 1475 1476 1476 1477 1478 1479
1439 1441 1442 1446 1446 1447 1442 1425 1400 1400 1399 1400 1402 1403 1405 1407 1409 1411 1414 1416 1419 1421 1423 1426 1428 1431 1434 1437 1439 1442 1444 1447 1449 1451 1454 1456 1458 1460 1462 1463 1465 1466 1468 1469 1470 1471 1471 1472 1472
1429 1431 1435 1444 1443 1436 1436 1422 1396 1396 1396 1397 1399 1400 1402 1404 1406 1408 1410 1412 1414 1416 1418 1421 1423 1425 1428 1431 1434 1436 1439 1441 1443 1446 1448 1450 1452 1454 1456 1458 1459 1461 1462 1463 1464 1465 1465 1466 1466